Oklahoma City / Page Muni, OK

5:12 AM CDT on August 18, 2017 (GMT -0500)
Oklahoma City / Page Muni

Weather History for KRCE - August, 2013

Change the Weather History Date:

Saturday, August 31, 2013

  Actual Average (KPWA) Record (KPWA)
Temperature  
Mean Temperature 86 °F -  
Max Temperature 100 °F 87 °F 106 °F (2011)
Min Temperature 71 °F 65 °F 56 °F (1967)
Cooling Degree Days 20    
Growing Degree Days 36 (Base 50)    
Moisture  
Dew Point 63 °F    
Average Humidity 50    
Maximum Humidity 73    
Minimum Humidity 25    
Precipitation  
Precipitation 0.00 in - - ()
Sea Level Pressure  
Sea Level Pressure 29.88 in    
Wind  
Wind Speed 8 mph (South)    
Max Wind Speed 14 mph    
Max Gust Speed 17 mph    
Visibility 10 miles    
Events      
Averages and records for this station are not official NWS values.
T = Trace of Precipitation, MM = Missing Value Source: NWS Daily Summary

Daily Weather History Graph

Daily Weather History Graph

Search for Another Location

Airport or City:

Trip Planner

Search our weather history database for the weather conditions in past years. The results will help you decide how hot, cold, wet, or windy it might be!

Date:

Astronomy

Aug. 31, 2013 Rise Set
Actual Time 7:02 AM CDT 7:59 PM CDT
Civil Twilight 6:36 AM CDT 8:25 PM CDT
Nautical Twilight 6:06 AM CDT 8:56 PM CDT
Astronomical Twilight 5:34 AM CDT 9:27 PM CDT
Moon 2:38 AM CDT (8/31) 4:53 PM CDT (8/31)
Length of Visible Light 13h 48m
Length of Day
12h 56m
Waning Crescent, 21% of the Moon is Illuminated
Aug 31
Waning Crescent
Sep 5
New
Sep 12
First Quarter
Sep 19
Full
Sep 26
Last Quarter

Hourly Weather History & Observations

Time (CDT) Temp. Heat Index Dew Point Humidity Pressure Visibility Wind Dir Wind Speed Gust Speed Precip Events Conditions
12:15 AM 78.8 °F - 64.4 °F 61% 29.91 in 10.0 mi SSE 9.2 mph - N/A   Clear
12:35 AM 77.0 °F - 64.4 °F 65% 29.91 in 10.0 mi South 6.9 mph - N/A   Clear
12:55 AM 77.0 °F - 64.4 °F 65% 29.91 in 10.0 mi SSE 8.1 mph - N/A   Clear
1:15 AM 77.0 °F - 64.4 °F 65% 29.92 in 10.0 mi SSE 6.9 mph - N/A   Clear
1:35 AM 75.2 °F - 64.4 °F 69% 29.91 in 10.0 mi South 8.1 mph - N/A   Clear
1:55 AM 77.0 °F - 64.4 °F 65% 29.91 in 10.0 mi South 6.9 mph - N/A   Partly Cloudy
2:15 AM 77.0 °F - 62.6 °F 61% 29.91 in 10.0 mi South 8.1 mph - N/A   Partly Cloudy
2:35 AM 75.2 °F - 64.4 °F 69% 29.91 in 10.0 mi South 8.1 mph - N/A   Clear
2:55 AM 75.2 °F - 62.6 °F 65% 29.91 in 10.0 mi South 8.1 mph - N/A   Clear
3:15 AM 75.2 °F - 62.6 °F 65% 29.91 in 10.0 mi South 8.1 mph - N/A   Partly Cloudy
3:35 AM 75.2 °F - 62.6 °F 65% 29.91 in 10.0 mi South 6.9 mph - N/A   Mostly Cloudy
3:55 AM 75.2 °F - 62.6 °F 65% 29.90 in 10.0 mi South 5.8 mph - N/A   Mostly Cloudy
4:15 AM 73.4 °F - 62.6 °F 69% 29.90 in 10.0 mi South 6.9 mph - N/A   Scattered Clouds
4:35 AM 73.4 °F - 62.6 °F 69% 29.91 in 10.0 mi South 8.1 mph - N/A   Mostly Cloudy
4:55 AM 73.4 °F - 62.6 °F 69% 29.90 in 10.0 mi South 8.1 mph - N/A   Partly Cloudy
5:15 AM 73.4 °F - 62.6 °F 69% 29.90 in 10.0 mi South 8.1 mph - N/A   Mostly Cloudy
5:35 AM 73.4 °F - 62.6 °F 69% 29.90 in 10.0 mi South 6.9 mph - N/A   Overcast
5:55 AM 73.4 °F - 62.6 °F 69% 29.90 in 10.0 mi South 6.9 mph - N/A   Mostly Cloudy
6:15 AM 73.4 °F - 62.6 °F 69% 29.90 in 10.0 mi SSW 6.9 mph - N/A   Mostly Cloudy
6:35 AM 71.6 °F - 62.6 °F 73% 29.91 in 10.0 mi South 6.9 mph - N/A   Mostly Cloudy
6:55 AM 71.6 °F - 62.6 °F 73% 29.92 in 10.0 mi South 5.8 mph - N/A   Mostly Cloudy
7:15 AM 71.6 °F - 62.6 °F 73% 29.92 in 10.0 mi South 8.1 mph - N/A   Scattered Clouds
7:35 AM 71.6 °F - 62.6 °F 73% 29.92 in 10.0 mi South 6.9 mph - N/A   Scattered Clouds
7:55 AM 73.4 °F - 64.4 °F 73% 29.93 in 9.0 mi South 6.9 mph - N/A   Scattered Clouds
8:15 AM 75.2 °F - 62.6 °F 65% 29.93 in 10.0 mi South 8.1 mph - N/A   Clear
8:35 AM 77.0 °F - 64.4 °F 65% 29.94 in 10.0 mi South 5.8 mph - N/A   Clear
8:55 AM 80.6 °F 82.3 °F 64.4 °F 58% 29.93 in 10.0 mi South 5.8 mph - N/A   Clear
9:15 AM 82.4 °F 83.9 °F 64.4 °F 54% 29.93 in 9.0 mi South 10.4 mph - N/A   Clear
9:35 AM 84.2 °F 85.6 °F 64.4 °F 51% 29.93 in 10.0 mi SSW 10.4 mph - N/A   Clear
9:55 AM 86.0 °F 87.3 °F 64.4 °F 48% 29.93 in 10.0 mi SSW 10.4 mph - N/A   Clear
10:15 AM 86.0 °F 87.3 °F 64.4 °F 48% 29.93 in 10.0 mi SSW 10.4 mph - N/A   Clear
10:35 AM 87.8 °F 89.4 °F 64.4 °F 46% 29.93 in 10.0 mi SSW 8.1 mph - N/A   Clear
10:55 AM 89.6 °F 91.1 °F 64.4 °F 43% 29.92 in 10.0 mi SW 11.5 mph - N/A   Clear
11:15 AM 91.4 °F 94.0 °F 66.2 °F 43% 29.92 in 10.0 mi SW 10.4 mph - N/A   Clear
11:35 AM 91.4 °F 93.2 °F 64.4 °F 41% 29.91 in 10.0 mi SSW 11.5 mph - N/A   Clear
11:55 AM 93.2 °F 94.9 °F 64.4 °F 38% 29.91 in 10.0 mi SSW 10.4 mph - N/A   Clear
12:15 PM 95.0 °F 97.0 °F 64.4 °F 36% 29.90 in 10.0 mi SW 9.2 mph 16.1 mph N/A   Clear
12:35 PM 95.0 °F 97.0 °F 64.4 °F 36% 29.90 in 10.0 mi SW 11.5 mph - N/A   Clear
12:55 PM 96.8 °F 99.0 °F 64.4 °F 34% 29.90 in 10.0 mi SW 13.8 mph 17.3 mph N/A   Clear
1:15 PM 98.6 °F 101.0 °F 64.4 °F 32% 29.89 in 10.0 mi SW 10.4 mph 16.1 mph N/A   Clear
1:35 PM 98.6 °F 100.0 °F 62.6 °F 30% 29.89 in 10.0 mi WSW 12.7 mph 16.1 mph N/A   Clear
1:55 PM 98.6 °F 100.0 °F 62.6 °F 30% 29.88 in 10.0 mi SW 8.1 mph - N/A   Clear
2:15 PM 98.6 °F 100.0 °F 62.6 °F 30% 29.88 in 10.0 mi SW 9.2 mph 17.3 mph N/A   Clear
2:35 PM 100.4 °F 102.4 °F 62.6 °F 29% 29.87 in 10.0 mi SW 8.1 mph 17.3 mph N/A   Clear
2:55 PM 100.4 °F 102.4 °F 62.6 °F 29% 29.87 in 10.0 mi SW 11.5 mph - N/A   Clear
3:15 PM 100.4 °F 102.4 °F 62.6 °F 29% 29.86 in 10.0 mi SSW 5.8 mph 17.3 mph N/A   Clear
3:35 PM 100.4 °F 101.3 °F 60.8 °F 27% 29.85 in 10.0 mi SW 10.4 mph - N/A   Clear
3:55 PM 100.4 °F 103.6 °F 64.4 °F 31% 29.85 in 10.0 mi SE 11.5 mph 17.3 mph N/A   Clear
4:15 PM 98.6 °F 99.4 °F 60.8 °F 29% 29.85 in 10.0 mi SE 4.6 mph - N/A   Clear
4:35 PM 98.6 °F 98.5 °F 59.0 °F 27% 29.84 in 10.0 mi South 5.8 mph - N/A   Clear
4:55 PM 100.4 °F 100.2 °F 59.0 °F 25% 29.84 in 10.0 mi SSW 4.6 mph - N/A   Clear
5:15 PM 100.4 °F 100.2 °F 59.0 °F 25% 29.84 in 10.0 mi WSW 6.9 mph - N/A   Clear
5:35 PM 98.6 °F 99.4 °F 60.8 °F 29% 29.83 in 10.0 mi South 10.4 mph - N/A   Clear
5:55 PM 98.6 °F 99.4 °F 60.8 °F 29% 29.83 in 10.0 mi South 10.4 mph - N/A   Clear
6:15 PM 98.6 °F 98.5 °F 59.0 °F 27% 29.83 in 10.0 mi South 10.4 mph - N/A   Clear
6:35 PM 95.0 °F 96.0 °F 62.6 °F 34% 29.83 in 10.0 mi SSE 9.2 mph - N/A   Clear
6:55 PM 93.2 °F 94.9 °F 64.4 °F 38% 29.83 in 10.0 mi SSE 6.9 mph - N/A   Clear
7:15 PM 91.4 °F 94.0 °F 66.2 °F 43% 29.83 in 10.0 mi SSE 8.1 mph - N/A   Clear
7:35 PM 89.6 °F 92.2 °F 66.2 °F 46% 29.83 in 10.0 mi SSE 8.1 mph - N/A   Clear
7:55 PM 86.0 °F 88.2 °F 66.2 °F 51% 29.83 in 10.0 mi SSE 8.1 mph - N/A   Clear
8:15 PM 84.2 °F 85.6 °F 64.4 °F 51% 29.83 in 10.0 mi SSE 8.1 mph - N/A   Clear
8:35 PM 84.2 °F 85.6 °F 64.4 °F 51% 29.83 in 10.0 mi SE 9.2 mph - N/A   Clear
8:55 PM 84.2 °F 86.6 °F 66.2 °F 55% 29.84 in 10.0 mi SSE 9.2 mph - N/A   Clear
9:15 PM 84.2 °F 85.6 °F 64.4 °F 51% 29.84 in 10.0 mi SE 9.2 mph - N/A   Clear
9:35 PM 84.2 °F 85.6 °F 64.4 °F 51% 29.85 in 10.0 mi SSE 10.4 mph - N/A   Clear
9:55 PM 84.2 °F 85.6 °F 64.4 °F 51% 29.85 in 10.0 mi SSE 11.5 mph - N/A   Clear
10:15 PM 84.2 °F 85.6 °F 64.4 °F 51% 29.85 in 10.0 mi SSE 10.4 mph - N/A   Clear
10:35 PM 84.2 °F 85.6 °F 64.4 °F 51% 29.85 in 10.0 mi SSE 10.4 mph - N/A   Clear
10:55 PM 82.4 °F 83.9 °F 64.4 °F 54% 29.85 in 10.0 mi SSE 10.4 mph - N/A   Clear
11:15 PM 82.4 °F 83.9 °F 64.4 °F 54% 29.84 in 10.0 mi SSE 10.4 mph - N/A   Clear
11:35 PM 82.4 °F 83.4 °F 62.6 °F 51% 29.84 in 10.0 mi South 10.4 mph - N/A   Clear
11:55 PM 82.4 °F 83.4 °F 62.6 °F 51% 29.83 in 10.0 mi SSE 11.5 mph - N/A   Clear